Regional Weather Roundup
Issued by NWS Sioux Falls, SD

Home | Current Version | Previous Version | Text Only | Print | Product List | Glossary Off
Versions: 1 2 3 4 5 6 7 8 9 10 11 12 13 14 15 16 17 18 19 20 21 22 23 24 25 26 27 28 29 30 31 32 33 34 35 36 37 38 39 40 41 42 43 44 45 46 47 48 49 50

000
ASUS43 KFSD 270502
RWRFSD

WEATHER ROUNDUP FOR SE SOUTH DAKOTA/SW MINNESOTA/NW IOWA
NATIONAL WEATHER SERVICE SIOUX FALLS SD
1200 AM CDT MON APR 27 2015

NOTE: "FAIR" INDICATES FEW OR NO CLOUDS BELOW 12,000 FEET WITH NO
SIGNIFICANT WEATHER AND OR OBSTRUCTIONS TO VISIBILITY.


SDZ038>040-050-052>070-270600-
SOUTHEAST SOUTH DAKOTA

CITY           SKY/WX    TMP DP  RH WIND       PRES   REMARKS
BROOKINGS      CLEAR     46  27  46 E7        30.16R
CHAMBERLAIN    NOT AVBL
HURON          PTCLDY    47  31  53 E7        30.14R
MADISON        FAIR      43  27  52 NE7       30.15R
MITCHELL       CLEAR     47  35  63 E7        30.14R
SIOUX FALLS    CLEAR     46  29  51 N5        30.13R
WINNER         FAIR      48  29  47 S7        30.14R
YANKTON        CLEAR     48  28  46 CALM      30.13R
$$

MNZ071-072-080-081-089-090-097-098-270600-
SOUTHWEST MINNESOTA

CITY           SKY/WX    TMP DP  RH WIND       PRES   REMARKS
FAIRMONT       CLEAR     45  21  39 CALM      30.12S
JACKSON        CLEAR     43  21  42 E5        30.14R
LUVERNE        CLEAR     46  27  46 NE7       30.14R
MARSHALL       CLEAR     46  19  34 E7        30.14S
MONTEVIDEO     CLEAR     45  21  39 E5        30.16S
REDWOOD FALLS  CLEAR     51  20  29 E5        30.14S
TRACY          CLEAR     44  19  37 CALM      30.15R
WORTHINGTON    CLEAR     43  21  42 NE6       30.14R
$$

IAZ001>003-012>014-020>022-031-032-NEZ013-014-SDZ071-270600-
NORTHWEST IOWA

CITY           SKY/WX    TMP DP  RH WIND       PRES   REMARKS
DENISON        CLEAR     45  34  65 CALM      30.11R
ESTHERVILLE    CLEAR     40  26  57 E6        30.13R
SIOUX CITY     CLEAR     45  29  53 S3        30.12R
SPENCER        CLEAR     42  31  64 NE8       30.13R
$$

ABBREVIATIONS USED IN REMARKS
   TC - TEMPERATURE IN CELSIUS
  WCI - WIND CHILL INDEX
   HX - HEAT INDEX
  VSB - VISIBILITY




USA.gov is the U.S. government's official web portal to all federal, state and local government web resources and services.